Location: Vihti�l�
(61.3833°N, 23.0667°E)
Time: 05:51:54
(UTC+00:00)

Cosmos 2263 Rocket - Pass Details

Date: 29 November 2020
Orbit: 823 x 849 km, 71.0° (Epoch: 22 January)

Event Time Altitude Azimuth Distance (km) Brightness Sun altitude
Exits shadow 03:01:26 30° 178° (S) 1,485 3.4 -27.7°
Maximum altitude 03:03:59 52° 119° (ESE) 1,056 2.9 -27.4°
Drops below altitude 10° 03:09:30 10° 45° (NE) 2,487 5.2 -26.7°
Sets 03:12:01 0° 41° (NE) 3,427 6.0 -26.4°
